Weather in Florovskoye

Russia / Yaroslavl Oblast     57°53′23″N   38°17′08″E
temp.,
°C
wind,
m/s
gust,
m/s
humid.,
%
clouds,
%
prec.,
mm/h
press.,
hPa
HPBL,
m
8 may, sat
sat800:00+5s3886100 0.0 1011154
03:00+5sse398093 0.0 1011195
06:00+7sse41471100 0.0 1010472
09:00+10sse71564100 0.1 10091482
12:00+8sse71491100 2.6 10081291
15:00+8sse61293100 7.7 10071283
18:00+7sse51094100 5.8 10051130
21:00+7ene2499100 10.9 1003142
9 may, sun
sun900:00+7nw4897100 3.9 1002483
03:00+4nnw61295100 4.4 1003620
06:00+3nw71397100 1.7 1005837
09:00+3nw61292100 3.6 1008901
12:00+6nw61181100 0.4 10111062
15:00+10nnw61045100 0.4 10142116
18:00+10nw595539 0.1 10161469
21:00+5wnw33733 0.1 102047
10 may, mon
mon1000:00+3wnw39730 0.0 1022161
03:00+2nw23745 0.0 102645
06:00+4w22665 0.0 102758
09:00+10sw344711 0.0 1028570
12:00+13sw46435 0.0 10281541
15:00+14sw4649100 0.0 10281523
18:00+11ssw276977 0.0 1028305
21:00+8ssw37815 0.0 1029118
11 may, tue
tue1100:00+7ssw378346 0.0 1030110
03:00+6ssw3688100 0.0 1030101
06:00+8ssw258448 0.0 1031124
09:00+14ssw34645 0.0 1031459
12:00+18ssw345537 0.0 1031990
15:00+19ssw345254 0.0 10301250
18:00+18wsw1262100 0.0 1029533
21:00+13sse1179100 0.0 102911
12 may, wed
wed1200:00+10s238816 0.0 103051
03:00+9se22880 0.0 103015
06:00+10se25821 0.0 1031149
09:00+16se36555 0.0 1030641
12:00+20se464516 0.0 10291151
15:00+21se45429 0.0 10281325
18:00+20se35540 0.0 1028666
21:00+13ese23790 0.0 102838